Powrót do katalogu

STARLINK-5888

AktywnyŁącznośćSSO
NORAD 56348·PAYLOAD·🇺🇸 United States

Wystrzelony Apr 27, 2023 z Vandenberg Space Force Base

Loading…

Następne Przeloty (najbliższe 24 godziny)

TLE

ŚwieżeSource: CelesTrak SupGP

Epoka: Sep 14, 2026, 20:55 UTC

1 56348C 23058AH  26257.87201389  .00774640  00000+0  40422-1 0  2571
2 56348  97.2857 251.9529 0001643  83.6031 101.0041 15.15630978    17

Śledź STARLINK-5888 w czasie rzeczywistym z AllMySat

Download on the App Store